Regional Weather Roundup
Issued by NWS

Home | Current Version | Previous Version | Graphics & Text | Print | Product List | Glossary On
Versions: 1 2 3 4 5 6 7 8 9 10 11 12 13 14 15 16 17 18 19 20 21 22 23 24 25 26 27 28 29 30 31 32 33 34 35 36 37 38 39 40 41 42 43 44 45 46 47 48 49 50
000
ASUS43 KMPX 061701
RWRMN
WEATHER ROUNDUP FOR MINNESOTA
NATIONAL WEATHER SERVICE TWIN CITIES/CHANHASSEN MN
1100 AM CST SAT FEB 06 2016


NOTE: "FAIR" INDICATES FEW OR NO CLOUDS BELOW 12,000 FEET WITH NO
SIGNIFICANT WEATHER AND/OR OBSTRUCTIONS TO VISIBILITY. N/A MEANS
CURRENT SKY AND/OR WEATHER CONDITIONS ARE NOT AVAILABLE.

MNZ060>063-068>070-061800-
   Twin Cities Metro

CITY           SKY/WX    TMP DP  RH WIND       PRES   REMARKS
TWIN CITIES    CLOUDY    30  24  78 S10       30.09S WCI  21
ST PAUL        CLOUDY    29  24  82 S10       30.10F WCI  20
CRYSTAL        CLOUDY    29  23  78 S10       30.05F WCI  20
BLAINE         PTSUNNY   30  27  86 S12       30.06S WCI  21
LAKEVILLE      CLOUDY    28  25  86 S8        30.09S WCI  20
EDEN PRAIRIE   CLOUDY    29  24  82 S14       30.07S WCI  18
SOUTH ST PAUL  CLOUDY    30  25  79 S6        30.10S WCI  24
LAKE ELMO      CLOUDY    30  27  86 S10G16    30.09F WCI  21
$$
MNZ001>005-007-008-013>017-022>024-027-028-061800-
   Northwest Minnesota

CITY           SKY/WX    TMP DP  RH WIND       PRES   REMARKS
BEMIDJI        CLOUDY    27  22  80 S7        29.82F WCI  20
HALLOCK        CLOUDY    27  23  86 S16       29.74F WCI  14
ROSEAU         MOSUNNY   28  21  74 S7        29.78F WCI  21
WARROAD        CLOUDY    25  21  86 E7        29.80F WCI  17
THIEF RVR FALL CLOUDY    28  23  80 S10       29.79F WCI  19
CROOKSTON      CLOUDY    28  25  86 S15       29.79F WCI  17
FOSSTON        CLOUDY    28  23  80 S16       29.80F WCI  17
DETROIT LAKES  CLOUDY    32  27  80 S9        29.84F WCI  24
MOORHEAD       CLOUDY    30  25  80 S13       29.84F WCI  20
PARK RAPIDS    CLOUDY    30  23  75 S14       29.84F WCI  19
MAHNOMEN       CLOUDY    30  25  82 S15       29.82F WCI  19
$$
MNZ006-009>011-018-025>026-061800-
   North Central Minnesota

CITY           SKY/WX    TMP DP  RH WIND       PRES   REMARKS
BAUDETTE       CLOUDY    25  18  74 SE9       29.81F WCI  15
FLAG ISLAND    CLOUDY    21  18  86 SE6       29.81F WCI  14
INTL FALLS     CLOUDY    24  18  77 SE8       29.86F WCI  15
WASKISH        CLOUDY    30  21  69 SE5       29.82F WCI  25
LONGVILLE      SUNNY     28  23  80 SE12      29.87F WCI  18
GRAND RAPIDS   PTSUNNY   25  19  80 S9        29.89F WCI  15
ORR            CLOUDY    25  16  68 CALM      29.86F
COOK           CLOUDY    25  18  74 SE3       29.90F
WALKER         FAIR      28  22  78 S7        29.85F WCI  21
$$
MNZ012-019>021-037-061800-
   Northeast Minnesota

CITY           SKY/WX    TMP DP  RH WIND       PRES   REMARKS
DULUTH         CLOUDY    25  19  78 SW9       29.95F WCI  15
ELY            CLOUDY    23  18  80 SE6       29.91F WCI  16
HIBBING        CLOUDY    24  19  81 S7        29.91F WCI  16
EVELETH        CLOUDY    25  19  80 S8        29.93F WCI  16
DULUTH HARBOR  CLOUDY    28  23  80 SW8       30.01F WCI  20
TWO HARBORS    CLOUDY    27  19  74 S5        29.96F WCI  21
SILVER BAY     CLOUDY    25  18  74 S3        29.96F
GRAND MARAIS     N/A     29  21  72 W6        30.00F WCI  23
G MARAIS ARPRT CLOUDY    21  14  73 S5        29.93F WCI  15
$$
MNZ029>031-032-039>041-046>048-054>057-064-061800-
   West Central Minnesota

CITY           SKY/WX    TMP DP  RH WIND       PRES   REMARKS
FERGUS FALLS   CLOUDY    32  25  74 S13       29.90F WCI  22
WHEATON        CLOUDY    37  28  70 S9        29.90F
MORRIS         MOSUNNY   34  27  75 S14       29.90F WCI  24
ALEXANDRIA     CLOUDY    32  23  69 SW16      29.91F WCI  21
ELBOW LAKE     FAIR      30  25  82 S14       29.89F HAZE    WCI  19
WADENA         CLOUDY    30  23  74 S9        29.87F WCI  22
GLENWOOD       MOSUNNY   32  25  74 SW18      29.93F WCI  20
APPLETON       MOSUNNY   37  25  60 S8        29.94F
BENSON         SUNNY     36  25  64 SW12      29.95F
ORTONVILLE     CLOUDY    37  25  60 SW6       29.92F
MADISON        MOSUNNY   37  25  60 SW15G21   29.95F
WILLMAR        FAIR      36  27  69 SW7G16    29.99F
$$
MNZ033>034-036-042>043-049>051-058-059-061800-
   Central Minnesota

CITY           SKY/WX    TMP DP  RH WIND       PRES   REMARKS
ST CLOUD       CLOUDY    27  22  81 S13       29.99F WCI  16
SAUK CENTRE    FAIR      31  24  75 S10       29.94F WCI  23
PAYNESVILLE    CLOUDY    30  24  77 S8        29.98F WCI  22
AITKIN         SUNNY     30  21  69 S15       29.90F WCI  19
PINE RIVER     CLOUDY    28  23  80 S9        29.92F WCI  20
BRAINERD       CLOUDY    28  23  81 S14       29.92F WCI  17
STAPLES        CLOUDY    28  21  74 S10       29.90F WCI  19
LONG PRAIRIE   PTSUNNY   28  23  80 S13       29.94F WCI  18
LITTLE FALLS   CLOUDY    30  23  74 S9        29.95F WCI  22
LITCHFIELD     CLOUDY    30  25  80 SE3       30.00F
BUFFALO        CLOUDY    27  22  80 S8        30.04F WCI  19
MAPLE LAKE     CLOUDY    29  24  82 S8        30.02F WCI  21
$$
MNZ037-044-045-052-053-061800-
   East Central Minnesota

CITY           SKY/WX    TMP DP  RH WIND       PRES   REMARKS
PRINCETON      CLOUDY    30  25  80 S8        30.01F WCI  23
MORA           SUNNY     32  27  80 S14       30.01F WCI  22
CAMBRIDGE      SUNNY     32  23  69 S13       30.00F WCI  22
RUSH CITY      CLOUDY    31  24  76 S9        30.03F WCI  22
MOOSE LAKE     CLOUDY    28  23  80 S13       29.96F WCI  18
HINCKLEY       PTSUNNY   30  27  86 S12       30.00F WCI  21
CLOQUET        CLOUDY    27  19  74 S10       29.95F WCI  17
MCGREGOR       CLOUDY    32  25  74 S9        29.93F WCI  24
$$
MNZ071>073-080-081-089-090-097-098-061800-
   Southwest Minnesota

CITY           SKY/WX    TMP DP  RH WIND       PRES   REMARKS
MONTEVIDEO     MOSUNNY   37  27  65 SW13      29.98F
GRANITE FALLS  CLOUDY    36  28  72 S18       30.01F
CANBY          CLOUDY    38  27  65 SW15G21   29.97F
MARSHALL       SUNNY     36  24  62 SW21G26   29.99F
REDWOOD FALLS  CLOUDY    31  24  75 S14       30.02F WCI  21
OLIVIA         MOSUNNY   34  28  80 S13       30.00F WCI  25
PIPESTONE        N/A     28  21  74 SW9       30.02F WCI  20
WINDOM         CLOUDY    28  27  93 S13       30.06S WCI  18
WORTHINGTON    SUNNY     25  21  86 S15       30.08S WCI  12
JACKSON        CLOUDY    30  27  86 SW10      30.09S WCI  21
TRACY          CLOUDY    31  25  77 SW22      30.02S WCI  18
SLAYTON        MOSUNNY   25  25 100 SW17      30.04F WCI  11
$$
MNZ065>067-074>077-082>085-091>093-061800-
   South Central Minnesota

CITY           SKY/WX    TMP DP  RH WIND       PRES   REMARKS
MANKATO        PTSUNNY   28  25  86 S9        30.09S WCI  20
NEW ULM        PTSUNNY   28  25  86 S13       30.05F WCI  18
ST JAMES       MOSUNNY   30  28  93 S15       30.09F WCI  19
FAIRMONT       CLOUDY    27  23  86 S13       30.10S VSB 1   WCI  16
GLENCOE        CLOUDY    31  28  88 S8        30.04F WCI  23
FARIBAULT      CLOUDY    28  25  86 S12       30.10F FOG     WCI  18
OWATONNA       CLOUDY    27  25  93 S16       30.10F FOG     WCI  14
WASECA         CLOUDY    28  27  93 S17       30.12S FOG     WCI  16
ALBERT LEA     CLOUDY    27  27 100 SW12      30.12S FOG     WCI  16
$$
MNZ078>079-086>088-094>096-061800-
   Southeast Minnesota

CITY           SKY/WX    TMP DP  RH WIND       PRES   REMARKS
ROCHESTER      CLOUDY    25  23  92 S13       30.13S FOG     WCI  14
RED WING       PTSUNNY   30  23  74 SW8       30.12F WCI  23
STANTON        CLOUDY    29  25  82 S10       30.09F FOG     WCI  20
DODGE CENTER   LGT SNOW  27  25  93 SW14      30.11S WCI  15
WINONA         CLOUDY    32  25  74 SW7       30.17F WCI  26
AUSTIN         LGT SNOW  25  25 100 S12       30.13S VSB 3/4 WCI  14
PRESTON        CLOUDY    26  23  90 SW9       30.14F FOG     WCI  16
$$
ABBREVIATIONS USED IN REMARKS
   TC - TEMPERATURES IN CELSIUS
  WCI - WIND CHILL INDEX
   HX - HEAT INDEX
  VSB - VISIBILITY
$$



USA.gov is the U.S. government's official web portal to all federal, state and local government web resources and services.